Location: Newark
(34.9500°N, 139.9667°E)
Time: 18:17:08
(UTC+00:00)

Vanguard 2 Rocket - Pass Details

Date: 08 December 2019
Orbit: 554 x 3326 km, 32.9° (Epoch: 23 January)

Event Time Altitude Azimuth Distance (km) Brightness Sun altitude
Rises 11:42:39 0° 268° (W) 5,190 11.4 -51.3°
Reaches altitude 10° 11:46:48 10° 267° (W) 3,734 10.5 -52.1°
Enters shadow 11:49:47 21° 265° (W) 2,656 9.5 -52.7°
Maximum altitude 11:55:32 76° 184° (S) 1,015 - -53.9°
Drops below altitude 10° 12:00:37 10° 99° (E) 2,233 - -54.9°
Sets 12:02:34 0° 97° (E) 2,993 - -55.3°
